Tracking 20040 objects as of 19-Nov-2019
Live streaming from Space Station
objects crossing your sky now

NAVSTAR 9 (USA 1)

Track NAVSTAR 9 (USA 1) now!
NAVSTAR 9 (USA 1) is classified as:


NORAD ID: 15039
Int'l Code: 1984-059A
Perigee: 20,395.8 km
Apogee: 21,493.4 km
Inclination: 62.3 °
Period: 748.8 minutes
Semi major axis: 27315 km
RCS: 0.4653 m2 (medium)
Launch date: June 13, 1984
Source: United States (US)
Launch site: AIR FORCE WESTERN TEST RANGE (AFWTR)
aabbcc
Your satellite tracking list
Your tracking list is empty




NASA's NSSDC Master Catalog

Two Line Element Set (TLE):
1 15039U 84059A   19323.18820067  .00000112  00000-0  00000+0 0  9997
2 15039  62.3183 134.2470 0200908  38.8965 136.6929  1.92303195251931
Source of the keplerian elements: AFSPC